Weather History for Atwater, CA

Change the Weather History Date:

Saturday, October 26, 2013

  Actual Average (KMCE) Record (KMCE)
Temperature  
Mean Temperature 62 °F 60 °F  
Max Temperature 82 °F 74 °F 88 °F (1965)
Min Temperature 42 °F 46 °F 39 °F (2006)
Degree Days  
Heating Degree Days 3    
Month to date heating degree days  
Since 1 July heating degree days  
Cooling Degree Days 0    
Month to date cooling degree days  
Year to date cooling degree days  
Growing Degree Days 12 (Base 50)    
Moisture  
Dew Point 47 °F    
Average Humidity 85    
Maximum Humidity 100    
Minimum Humidity 25    
Precipitation  
Precipitation 0.00 in 0.04 in 1.44 in (2000)
Month to date precipitation 0.54  
Year to date precipitation 9.53  
Since 1 July precipitation 0.85  
Snow  
Snow 0.00 in - - ()
Month to date snowfall  
Since 1 July snowfall  
Since 1 September snowfall  
Snow Depth -    
Sea Level Pressure  
Sea Level Pressure 30.08 in    
Wind  
Wind Speed 1 mph (NW)    
Max Wind Speed 8 mph    
Max Gust Speed -    
Visibility 8 miles    
Events      
T = Trace of Precipitation, MM = Missing Value Source: NWS Daily Summary

Daily Weather History Graph

Daily Weather History Graph

Search for Another Location

Airport:

Trip Planner

Search our weather history database for the weather conditions in past years. The results will help you decide how hot, cold, wet, or windy it might be!

Date:

Astronomy

Oct. 26, 2013 Rise Set
Actual Time 7:21 AM PDT 6:10 PM PDT
Civil Twilight 6:54 AM PDT 6:37 PM PDT
Nautical Twilight 6:23 AM PDT 7:07 PM PDT
Astronomical Twilight 5:53 AM PDT 7:38 PM PDT
Moon No Moon Rise 1:39 PM PDT (10/26)
Length of Visible Light 11h 42m
Length of Day
10h 49m
Waning Gibbous, 52% of the Moon is Illuminated
Oct 26
Waning Gibbous
Oct 26
Last Quarter
Nov 3
New
Nov 9
First Quarter
Nov 17
Full

Hourly Weather History & Observations

Time (PDT) Temp. Windchill Dew Point Humidity Pressure Visibility Wind Dir Wind Speed Gust Speed Precip Events Conditions
12:15 AM 51.8 °F - 51.8 °F 100% 30.11 in 10.0 mi Calm Calm - N/A   Clear
12:35 AM 50.0 °F - 50.0 °F 100% 30.11 in 10.0 mi Calm Calm - N/A   Clear
12:55 AM 48.2 °F - 48.2 °F 100% 30.11 in 10.0 mi Calm Calm - N/A   Clear
1:15 AM 48.2 °F - 48.2 °F 100% 30.11 in 9.0 mi Calm Calm - N/A   Clear
1:35 AM 46.4 °F 45.2 °F 46.4 °F 100% 30.11 in 10.0 mi East 3.5 mph - N/A   Clear
1:55 AM 46.4 °F - 46.4 °F 100% 30.12 in 8.0 mi Calm Calm - N/A   Clear
2:15 AM 46.4 °F - 46.4 °F 100% 30.12 in 8.0 mi Calm Calm - N/A   Clear
2:35 AM 46.4 °F - 46.4 °F 100% 30.12 in 7.0 mi Calm Calm - N/A   Clear
2:55 AM 44.6 °F - 44.6 °F 100% 30.12 in 5.0 mi Calm Calm - N/A   Clear
3:15 AM 46.4 °F - 46.4 °F 100% 30.12 in 7.0 mi Calm Calm - N/A   Clear
3:35 AM 46.4 °F - 46.4 °F 100% 30.11 in 8.0 mi Calm Calm - N/A   Clear
3:55 AM 44.6 °F - 44.6 °F 100% 30.11 in 8.0 mi Calm Calm - N/A   Clear
4:15 AM 44.6 °F - 44.6 °F 100% 30.11 in 5.0 mi Calm Calm - N/A   Clear
4:35 AM 44.6 °F - 44.6 °F 100% 30.11 in 7.0 mi Calm Calm - N/A   Clear
4:55 AM 42.8 °F - 42.8 °F 100% 30.11 in 8.0 mi Calm Calm - N/A   Clear
5:15 AM 44.6 °F 43.1 °F 44.6 °F 100% 30.11 in 5.0 mi East 3.5 mph - N/A   Clear
5:35 AM 44.6 °F - 44.6 °F 100% 30.11 in 9.0 mi Calm Calm - N/A   Clear
5:55 AM 44.6 °F - 44.6 °F 100% 30.11 in 7.0 mi Calm Calm - N/A   Clear
6:15 AM 42.8 °F - 42.8 °F 100% 30.12 in 6.0 mi Calm Calm - N/A   Clear
6:35 AM 44.6 °F - 44.6 °F 100% 30.12 in 5.0 mi Calm Calm - N/A   Clear
6:45 AM 42.8 °F - 42.8 °F 100% 30.12 in 7.0 mi Calm Calm - N/A   Clear
6:55 AM 42.8 °F - 42.8 °F 100% 30.11 in 4.0 mi Calm Calm - N/A   Clear
7:45 AM 42.8 °F - 42.8 °F 100% 30.12 in 5.0 mi Calm Calm - N/A   Haze
8:45 AM 51.8 °F - 51.8 °F 100% 30.14 in 7.0 mi Calm Calm - N/A   Clear
9:45 AM 60.8 °F - 48.2 °F 63% 30.14 in 7.0 mi Calm Calm - N/A   Clear
10:45 AM 66.2 °F - 48.2 °F 52% 30.13 in 7.0 mi Calm Calm - N/A   Clear
11:45 AM 71.6 °F - 48.2 °F 43% 30.13 in 7.0 mi Calm Calm - N/A   Clear
12:45 PM 77.0 °F - 44.6 °F 32% 30.10 in 7.0 mi NNW 8.1 mph - N/A   Clear
3:45 PM 82.4 °F - 42.8 °F 25% 30.07 in 7.0 mi NNW 4.6 mph - N/A   Clear
4:45 PM 80.6 °F - 44.6 °F 28% 30.01 in 7.0 mi NNW 6.9 mph - N/A   Clear
5:45 PM 75.2 °F - 44.6 °F 34% 30.00 in 7.0 mi NNW 8.1 mph - N/A   Clear
6:52 PM 69.8 °F - 46.4 °F 43% 30.01 in 7.0 mi WNW 4.6 mph - N/A   Clear
7:45 PM 66.2 °F - 48.2 °F 52% 30.01 in 7.0 mi WNW 3.5 mph - N/A   Clear
8:45 PM 60.8 °F - 50.0 °F 68% 30.01 in 7.0 mi WNW 3.5 mph - N/A   Clear
9:15 PM 59.0 °F - 48.2 °F 67% 30.01 in 10.0 mi NW 3.5 mph - N/A   Clear
9:35 PM 57.2 °F - 48.2 °F 72% 30.01 in 10.0 mi Calm Calm - N/A   Clear
9:55 PM 55.4 °F - 50.0 °F 82% 30.01 in 10.0 mi Calm Calm - N/A   Clear
10:15 PM 55.4 °F - 51.8 °F 88% 30.01 in 10.0 mi Calm Calm - N/A   Clear
10:35 PM 53.6 °F - 51.8 °F 94% 30.01 in 8.0 mi North - - N/A   Clear
10:55 PM 53.6 °F - 53.6 °F 100% 30.01 in 6.0 mi Calm Calm - N/A   Clear
11:15 PM 53.6 °F - 53.6 °F 100% 30.01 in 8.0 mi South 3.5 mph - N/A   Clear
11:35 PM 53.6 °F - 53.6 °F 100% 30.01 in 9.0 mi SSE 3.5 mph - N/A   Clear
11:55 PM 51.8 °F - 51.8 °F 100% 30.02 in 10.0 mi South 3.5 mph - N/A   Clear